Simultaneous Nadir Overpasses (SNOs) Predictions

Prediction of SNOs between GOES-15 and TERRA Satellite Orbit:

Table of predicted SNOs for the next 14.0 days since TLE Epoch: 11/15/2014
Index Date Time (GOES-15) GOES-15 Lat,Lon TERRA Lat,Lon Distance(km) Time Diff (sec)
1 11/15/2014 07:30:44 0.21,-134.43 0.12,-134.81 42.83 80
2 11/17/2014 07:15:58 0.21,-134.33 0.73,-131.87 280.17 80
3 11/17/2014 19:37:15 -0.19,-134.35 0.38,-137.03 304.46 80
4 11/19/2014 19:25:12 -0.20,-134.25 -0.24,-134.11 16.73 80
5 11/21/2014 19:15:51 -0.20,-134.14 -0.85,-131.19 336.02 80
6 11/22/2014 07:37:17 0.18,-134.07 -0.33,-136.38 262.89 80
7 11/24/2014 07:22:39 0.18,-133.95 0.29,-133.48 53.93 80
8 11/26/2014 07:10:42 0.18,-133.82 0.84,-130.57 369.07 80
9 11/26/2014 19:32:02 -0.16,-133.82 0.25,-135.75 218.67 80
10 11/28/2014 19:22:48 -0.16,-133.69 -0.31,-132.85 94.68 80




NCC Satellite Simultaneous Nadir Overpasses (SNOs) Prediction Service
